• In Russia
  • List of Countries
  • For 7 days
  • Water Temperature
  • Weather Map
  • Weather Widgets
  • user-avatar
    Login

    Hourly Weather Kandahar

    Today, 18 November, Monday

    Time Temperature Precipitation Wind Pressure Humidity
    00:00 +12°C° 0 mm 1 mps 679 mmHg 33%
    01:00 +12°C° 0 mm 1 mps 679 mmHg 34%
    02:00 +11°C° 0 mm 1 mps 679 mmHg 35%
    03:00 +11°C° 0 mm 1 mps 678 mmHg 35%
    04:00 +9°C° 0 mm 0 mps 678 mmHg 37%
    05:00 +10°C° 0 mm 0 mps 678 mmHg 36%
    06:00 +10°C° 0 mm 0 mps 679 mmHg 36%
    07:00 +10°C° 0 mm 0 mps 679 mmHg 36%
    08:00 +12°C° 0 mm 0 mps 679 mmHg 32%
    09:00 +13°C° 0 mm 0 mps 680 mmHg 29%
    10:00 +15°C° 0 mm 0 mps 680 mmHg 25%
    11:00 +18°C° 0 mm 1 mps 680 mmHg 24%
    12:00 +19°C° 0 mm 1 mps 679 mmHg 23%
    13:00 +20°C° 0 mm 1 mps 679 mmHg 22%
    14:00 +20°C° 0 mm 1 mps 678 mmHg 22%
    15:00 +18°C° 0 mm 2 mps 678 mmHg 22%
    16:00 +18°C° 0 mm 2 mps 677 mmHg 22%
    17:00 +17°C° 0 mm 2 mps 678 mmHg 24%
    18:00 +16°C° 0 mm 2 mps 678 mmHg 25%
    19:00 +15°C° 0 mm 1 mps 678 mmHg 27%
    20:00 +14°C° 0 mm 1 mps 678 mmHg 28%
    21:00 +14°C° 0 mm 1 mps 678 mmHg 28%
    22:00 +13°C° 0 mm 1 mps 677 mmHg 28%
    23:00 +13°C° 0 mm 1 mps 677 mmHg 29%

    Tomorrow, 19 November, Tuesday

    Time Temperature Precipitation Wind Pressure Humidity
    00:00 +12°C° 0 mm 1 mps 677 mmHg 30%
    01:00 +11°C° 0 mm 1 mps 677 mmHg 31%
    02:00 +10°C° 0 mm 0 mps 676 mmHg 32%
    03:00 +10°C° 0 mm 0 mps 676 mmHg 33%
    04:00 +9°C° 0 mm 0 mps 676 mmHg 34%
    05:00 +9°C° 0 mm 0 mps 676 mmHg 33%
    06:00 +10°C° 0 mm 0 mps 676 mmHg 33%
    07:00 +10°C° 0 mm 0 mps 677 mmHg 33%
    08:00 +12°C° 0 mm 0 mps 677 mmHg 29%
    09:00 +13°C° 0 mm 0 mps 677 mmHg 25%
    10:00 +16°C° 0 mm 1 mps 677 mmHg 21%
    11:00 +18°C° 0 mm 1 mps 677 mmHg 20%
    12:00 +19°C° 0 mm 1 mps 676 mmHg 19%
    13:00 +20°C° 0 mm 1 mps 676 mmHg 18%
    14:00 +20°C° 0 mm 1 mps 676 mmHg 18%
    15:00 +20°C° 0 mm 1 mps 675 mmHg 19%
    16:00 +19°C° 0 mm 1 mps 675 mmHg 20%
    17:00 +18°C° 0 mm 1 mps 675 mmHg 22%
    18:00 +16°C° 0 mm 1 mps 675 mmHg 24%
    19:00 +14°C° 0 mm 0 mps 675 mmHg 26%
    20:00 +13°C° 0 mm 0 mps 675 mmHg 26%
    21:00 +13°C° 0 mm 0 mps 675 mmHg 27%
    22:00 +12°C° 0 mm 0 mps 675 mmHg 27%
    23:00 +12°C° 0 mm 0 mps 675 mmHg 27%

    Day after tomorrow, 20 November, Wednesday

    Time Temperature Precipitation Wind Pressure Humidity
    00:00 +13°C° 0 mm 1 mps 674 mmHg 27%
    01:00 +13°C° 0 mm 1 mps 674 mmHg 27%
    02:00 +13°C° 0 mm 1 mps 674 mmHg 27%
    03:00 +13°C° 0 mm 1 mps 674 mmHg 26%
    04:00 +14°C° 0 mm 2 mps 674 mmHg 26%
    05:00 +14°C° 0 mm 2 mps 674 mmHg 26%
    06:00 +14°C° 0 mm 2 mps 674 mmHg 26%
    07:00 +14°C° 0 mm 2 mps 674 mmHg 26%
    08:00 +16°C° 0 mm 2 mps 675 mmHg 23%
    09:00 +17°C° 0 mm 2 mps 675 mmHg 20%
    10:00 +19°C° 0 mm 2 mps 675 mmHg 17%
    11:00 +19°C° 0 mm 2 mps 675 mmHg 17%
    12:00 +21°C° 0 mm 1 mps 675 mmHg 16%
    13:00 +22°C° 0 mm 1 mps 675 mmHg 15%
    14:00 +20°C° 0 mm 2 mps 675 mmHg 18%
    15:00 +20°C° 0 mm 2 mps 675 mmHg 22%
    16:00 +19°C° 0 mm 3 mps 675 mmHg 25%
    17:00 +18°C° 0 mm 4 mps 675 mmHg 32%
    18:00 +16°C° 0 mm 5 mps 675 mmHg 39%
    19:00 +15°C° 0 mm 5 mps 675 mmHg 46%
    20:00 +15°C° 0 mm 6 mps 675 mmHg 48%
    21:00 +15°C° 0 mm 7 mps 675 mmHg 49%
    22:00 +15°C° 0 mm 7 mps 675 mmHg 51%
    23:00 +15°C° 0 mm 6 mps 675 mmHg 52%

    21 November, Thursday

    Time Temperature Precipitation Wind Pressure Humidity
    00:00 +15°C° 0 mm 5 mps 674 mmHg 53%
    01:00 +16°C° 0 mm 3 mps 674 mmHg 54%
    02:00 +14°C° 0.2 mm 4 mps 674 mmHg 57%
    03:00 +14°C° 0.2 mm 4 mps 674 mmHg 60%
    04:00 +14°C° 0.2 mm 5 mps 673 mmHg 64%
    05:00 +13°C° 0.4 mm 5 mps 674 mmHg 66%
    06:00 +13°C° 0.4 mm 4 mps 674 mmHg 69%
    07:00 +13°C° 0.4 mm 4 mps 674 mmHg 72%
    08:00 +13°C° 0.8 mm 5 mps 675 mmHg 75%
    09:00 +11°C° 0.8 mm 6 mps 675 mmHg 78%
    10:00 +11°C° 0.8 mm 6 mps 675 mmHg 81%
    11:00 +11°C° 0.8 mm 6 mps 675 mmHg 78%
    12:00 +13°C° 0.8 mm 6 mps 675 mmHg 75%
    13:00 +13°C° 0.8 mm 6 mps 674 mmHg 73%
    14:00 +13°C° 1.1 mm 6 mps 674 mmHg 76%
    15:00 +11°C° 1.1 mm 7 mps 674 mmHg 79%
    16:00 +11°C° 1.1 mm 7 mps 673 mmHg 82%
    17:00 +11°C° 1.8 mm 7 mps 673 mmHg 83%
    18:00 +11°C° 1.8 mm 6 mps 674 mmHg 84%
    19:00 +11°C° 1.8 mm 6 mps 674 mmHg 85%
    20:00 +12°C° 2.1 mm 4 mps 674 mmHg 84%
    21:00 +12°C° 2.1 mm 3 mps 675 mmHg 82%
    22:00 +14°C° 2.1 mm 2 mps 675 mmHg 81%
    23:00 +12°C° 0.1 mm 3 mps 675 mmHg 80%

    22 November, Friday

    Time Temperature Precipitation Wind Pressure Humidity
    00:00 +12°C° 0.1 mm 4 mps 675 mmHg 79%
    01:00 +10°C° 0.1 mm 5 mps 675 mmHg 78%
    02:00 +11°C° 0.1 mm 4 mps 675 mmHg 78%
    03:00 +11°C° 0.1 mm 4 mps 676 mmHg 78%
    04:00 +10°C° 0.1 mm 3 mps 676 mmHg 77%
    05:00 +10°C° 0 mm 3 mps 676 mmHg 76%
    06:00 +10°C° 0 mm 2 mps 677 mmHg 74%
    07:00 +10°C° 0 mm 2 mps 677 mmHg 73%
    08:00 +10°C° 0 mm 2 mps 677 mmHg 69%
    09:00 +10°C° 0 mm 2 mps 678 mmHg 65%
    10:00 +11°C° 0 mm 3 mps 678 mmHg 61%
    11:00 +12°C° 0 mm 2 mps 678 mmHg 59%
    12:00 +13°C° 0 mm 2 mps 677 mmHg 56%
    13:00 +13°C° 0 mm 2 mps 677 mmHg 53%
    14:00 +13°C° 0 mm 2 mps 677 mmHg 52%
    15:00 +13°C° 0 mm 1 mps 677 mmHg 51%
    16:00 +13°C° 0 mm 1 mps 677 mmHg 50%
    17:00 +13°C° 0 mm 1 mps 677 mmHg 53%
    18:00 +12°C° 0 mm 1 mps 677 mmHg 56%
    19:00 +12°C° 0 mm 1 mps 677 mmHg 59%
    20:00 +12°C° 0 mm 1 mps 677 mmHg 61%
    21:00 +11°C° 0 mm 1 mps 678 mmHg 62%
    22:00 +11°C° 0 mm 1 mps 678 mmHg 64%
    23:00 +10°C° 0 mm 1 mps 678 mmHg 65%

    23 November, Saturday

    Time Temperature Precipitation Wind Pressure Humidity
    00:00 +10°C° 0 mm 1 mps 678 mmHg 67%
    01:00 +9°C° 0 mm 0 mps 678 mmHg 69%
    02:00 +8°C° 0 mm 0 mps 678 mmHg 69%
    03:00 +8°C° 0 mm 0 mps 677 mmHg 70%
    04:00 +8°C° 0 mm 0 mps 677 mmHg 70%
    05:00 +8°C° 0 mm 0 mps 678 mmHg 70%
    06:00 +8°C° 0 mm 0 mps 678 mmHg 69%
    07:00 +8°C° 0 mm 0 mps 678 mmHg 69%
    08:00 +9°C° 0 mm 0 mps 679 mmHg 63%
    09:00 +10°C° 0 mm 0 mps 679 mmHg 58%
    10:00 +11°C° 0 mm 0 mps 679 mmHg 52%
    11:00 +12°C° 0 mm 0 mps 679 mmHg 49%
    12:00 +13°C° 0 mm 1 mps 678 mmHg 46%
    13:00 +14°C° 0 mm 1 mps 678 mmHg 43%
    14:00 +14°C° 0 mm 1 mps 678 mmHg 42%
    15:00 +14°C° 0 mm 1 mps 678 mmHg 42%
    16:00 +14°C° 0 mm 1 mps 678 mmHg 41%
    17:00 +14°C° 0 mm 1 mps 678 mmHg 45%
    18:00 +13°C° 0 mm 2 mps 678 mmHg 48%
    19:00 +13°C° 0 mm 2 mps 678 mmHg 51%
    20:00 +12°C° 0 mm 2 mps 678 mmHg 54%
    21:00 +12°C° 0 mm 1 mps 678 mmHg 57%
    22:00 +11°C° 0 mm 1 mps 678 mmHg 60%
    23:00 +11°C° 0 mm 1 mps 678 mmHg 62%
    Show more